Rbgn^[z[y[W
メイン
   新天体発見情報
     Comet P/2023 V2 (PANSTARRS)
投稿するにはまず登録を

スレッド表示 | 新しいものから 前のトピック | 次のトピック | 下へ
投稿者 スレッド
佐藤裕久
投稿日時: 2023-11-28 18:07
モデレータ
登録日: 2005-6-12
居住地: 日本
投稿: 2687
オンライン
Comet P/2023 V2 (PANSTARRS)

R. Weryk (西オンタリオ大学,物理および天文学科)の通報によると、11月4日、Haleakalaにある
Pan-STARRS2とPan-STARRS1 1.8-m Ritchey-Chretien反射望遠鏡で得た画像から彗星を発見した。
11月4.5日UT、4枚の45-秒のw-バンドPan-STARRS2サーベイ画像では、1".6の悪いシーイングで、
2".0(半値全幅:FWHM)の集光したコマが見えるが明らかな尾はない。
Pan-STARRS1の観測は、その後10月15日UT(21.4-21.8等)から、小惑星センターの "isolated 
tracklet file "から確認された。発見前のPan-STARRS2の観測は、後に9月19.6日(22.3等)と
同様に、10月6.5日(21.2-21.9等)のPan-STARRS1の観測が報告された。
小惑星センターのPCCP webpageに公表後、佐藤英貴氏(東京都文京区,11月6.2日UT、120-秒露出
8枚のスタック, "Deep Sky Chile" 0.51-m f/6.8 アストログラフ, Rio Hurtado, チリ, 遠隔
操作:強く集光した5" のコマが見えるが尾はない。2".8の円形範囲で測定した光度は20.1等で
あった)らCCD観測者によって彗星状と観測された。

彗星機能の報告は次のとおり、

OC   Date        Reporter           Coma    Tail    PA          Exposures
G96  2023-11-05  J. B. Fazekas      7".5
X07  2023-11-06  H. Sato            5"                            8x120s

発見位置は次のとおり、

     2023 UT             R.A. (2000) Decl.       Mag.
     Nov.  4.46638    3 15 10.14   + 6 45 55.5   20.5
           4.47885    3 15 09.69   + 6 45 55.0   20.5
           4.49134    3 15 09.24   + 6 45 54.6   20.6
           4.50372    3 15 08.81   + 6 45 53.8   20.6
           4.56749    3 15 06.57   + 6 45 50.9   20.3
           4.56831    3 15 06.54   + 6 45 51.0   20.0

MPCの楕円軌道要素、位置推算表は次のとおり、

Orbital elements:
    P/2023 V2 (PANSTARRS)                                                       
Epoch 2023 Sept. 13.0 TT = JDT 2460200.5                                        
T 2024 Feb. 4.62908 TT                                  Rudenko                 
q   3.1036446            (2000.0)            P               Q                  
n   0.05026827     Peri.  330.64972     +0.39652998     -0.90201664             
a   7.2712109      Node    95.53709     +0.87216353     +0.31212821             
e   0.5731599      Incl.    9.87360     +0.28652182     +0.29823139             
P  19.6                                                                         
From 37 observations 2023 Sept. 19-Nov. 7, mean residual 0".2.                  
                                                                                
Ephemeris:
Date    TT    R. A. (2000) Decl.     Delta      r    Elong.  Phase   m1
2023 10 09    03 26 01.6 +07 18 41   2.3721  3.2239   142.7    10.8  20.5
...
2023 10 24    03 21 02.8 +06 57 46   2.2543  3.1961   157.5     6.8  20.3
...
2023 11 01    03 17 04.9 +06 48 51   2.2143  3.1827   164.7     4.7  20.3
...
2023 11 07    03 13 43.2 +06 44 18   2.1958  3.1732   168.5     3.6  20.2
2023 11 08    03 13 08.3 +06 43 46   2.1936  3.1717   168.9     3.5  20.2
2023 11 09    03 12 33.2 +06 43 18   2.1918  3.1702   169.1     3.4  20.2
...
2023 11 15    03 08 59.8 +06 42 14   2.1867  3.1616   168.2     3.7  20.2
...
2023 11 23    03 04 21.1 +06 45 57   2.1955  3.1510   162.4     5.5  20.2
...
2023 12 08    02 57 06.6 +07 11 02   2.2581  3.1339   147.5     9.7  20.2

(MPEC 2023-V108、CBET 5312)

スレッド表示 | 新しいものから 前のトピック | 次のトピック | トップ

投稿するにはまず登録を
 
© 1999 Tsutomu Seki.